Tracking 20710 objects as of 30-May-2020
HD Live streaming from Space Station
objects crossing your sky now

FENGYUN 1C DEB

Track FENGYUN 1C DEB now!
10-day predictions


NORAD ID: 31926
Int'l Code: 1999-025CMD
Perigee: 826.8 km
Apogee: 892.1 km
Inclination: 99.0 °
Period: 102.0 minutes
Semi major axis: 7230 km
RCS: 0.0122 m2 (small)
Launch date: May 10, 1999
Source: People's Republic of China (PRC)
Launch site: Taiyaun Space Center, China (TSC)

Note: This is SATELLITE DEBRIS
aabbcc
Your satellite tracking list
Your tracking list is empty




NASA's NSSDC Master Catalog

Two Line Element Set (TLE):
1 31926U 99025CMD 20150.05118344 +.00000771 +00000-0 +44170-3 0  9994
2 31926 099.0379 192.8173 0045200 249.4830 110.1487 14.12066920665529
Source of the keplerian elements: AFSPC